ENGINEERING TRACK TESTING
Weather & Rail Temperature Monitoring
Weather station BWI
BWI Rail Station (Linthicum Hts. MD)
Measurement History
![]() ENGINEERING TRACK TESTING Weather station BWI BWI Rail Station (Linthicum Hts. MD) Measurement History ![]() |
Conditions for past 24 hours (since 09/01/2026 01:29 AM)
| Time | Track 2 W rail | Track 2 E rail | Track 3 W rail | Track 3 E rail | Outside Air Temperature |
Solar Radiation |
Max. Wind | Humidity | Air Pressure | Rain | |
| Speed | Dir | ||||||||||
| 09/02/2026 01:15 AM | 81 °F | 81 °F | 80 °F | 81 °F | 81.1 °F | 0 watt/m2 | 0 mph | --- | 87 % | 29.931 in Hg | 0 in |
| 09/02/2026 01:00 AM | 82 °F | 81 °F | 81 °F | 82 °F | 81.6 °F | 0 watt/m2 | 4 mph | NNE | 86 % | 29.94 in Hg | 0 in |
| 09/02/2026 12:45 AM | 82 °F | 81 °F | 81 °F | 82 °F | 82.3 °F | 0 watt/m2 | 0 mph | --- | 84 % | 29.924 in Hg | 0 in |
| 09/02/2026 12:30 AM | 82 °F | 82 °F | 82 °F | 82 °F | 82.4 °F | 0 watt/m2 | 0 mph | --- | 83 % | 29.925 in Hg | 0 in |
| 09/02/2026 12:15 AM | 83 °F | 82 °F | 82 °F | 83 °F | 82.7 °F | 0 watt/m2 | 6 mph | N | 84 % | 29.927 in Hg | 0 in |
| 09/02/2026 12:00 AM | 83 °F | 82 °F | 82 °F | 83 °F | 82.6 °F | 0 watt/m2 | 5 mph | NNE | 85 % | 29.918 in Hg | 0 in |
| 09/01/2026 11:45 PM | 84 °F | 83 °F | 83 °F | 84 °F | 82.6 °F | 0 watt/m2 | 1 mph | NE | 84 % | 29.902 in Hg | 0 in |
| 09/01/2026 11:30 PM | 84 °F | 83 °F | 84 °F | 84 °F | 83.5 °F | 0 watt/m2 | 0 mph | --- | 82 % | 29.892 in Hg | 0 in |
| 09/01/2026 11:15 PM | 85 °F | 84 °F | 84 °F | 85 °F | 84.2 °F | 0 watt/m2 | 0 mph | --- | 81 % | 29.885 in Hg | 0 in |
| 09/01/2026 11:00 PM | 85 °F | 84 °F | 84 °F | 85 °F | 84.8 °F | 0 watt/m2 | 0 mph | --- | 81 % | 29.88 in Hg | 0 in |
| 09/01/2026 10:45 PM | 86 °F | 85 °F | 85 °F | 86 °F | 85.1 °F | 0 watt/m2 | 0 mph | --- | 80 % | 29.869 in Hg | 0 in |
| 09/01/2026 10:30 PM | 86 °F | 85 °F | 86 °F | 86 °F | 85.2 °F | 0 watt/m2 | 0 mph | --- | 79 % | 29.863 in Hg | 0 in |
| 09/01/2026 10:15 PM | 86 °F | 85 °F | 86 °F | 87 °F | 85.5 °F | 0 watt/m2 | 4 mph | NE | 79 % | 29.868 in Hg | 0 in |
| 09/01/2026 10:00 PM | 87 °F | 86 °F | 87 °F | 88 °F | 85.6 °F | 0 watt/m2 | 0 mph | --- | 79 % | 29.87 in Hg | 0 in |
| 09/01/2026 09:45 PM | 87 °F | 86 °F | 87 °F | 88 °F | 85.5 °F | 0 watt/m2 | 4 mph | NE | 80 % | 29.868 in Hg | 0 in |
| 09/01/2026 09:30 PM | 88 °F | 87 °F | 87 °F | 88 °F | 85.3 °F | 0 watt/m2 | 0 mph | --- | 80 % | 29.859 in Hg | 0 in |
| 09/01/2026 09:15 PM | 88 °F | 87 °F | 87 °F | 88 °F | 85.6 °F | 0 watt/m2 | 0 mph | --- | 82 % | 29.858 in Hg | 0 in |
| 09/01/2026 09:00 PM | 89 °F | 88 °F | 87 °F | 88 °F | 85.6 °F | 0 watt/m2 | 0 mph | --- | 81 % | 29.856 in Hg | 0 in |
| 09/01/2026 08:45 PM | 90 °F | 89 °F | 88 °F | 89 °F | 85.8 °F | 0 watt/m2 | 0 mph | --- | 80 % | 29.847 in Hg | 0 in |
| 09/01/2026 08:30 PM | 91 °F | 89 °F | 89 °F | 91 °F | 86.5 °F | 0 watt/m2 | 0 mph | --- | 80 % | 29.84 in Hg | 0 in |
| 09/01/2026 08:15 PM | 92 °F | 90 °F | 90 °F | 91 °F | 87.3 °F | 0 watt/m2 | 0 mph | --- | 80 % | 29.828 in Hg | 0 in |
| 09/01/2026 08:00 PM | 93 °F | 91 °F | 90 °F | 92 °F | 88.2 °F | 0 watt/m2 | 0 mph | --- | 78 % | 29.823 in Hg | 0 in |
| 09/01/2026 07:45 PM | 94 °F | 93 °F | 91 °F | 94 °F | 89.3 °F | 2 watt/m2 | 0 mph | --- | 75 % | 29.824 in Hg | 0 in |
| 09/01/2026 07:30 PM | 95 °F | 94 °F | 92 °F | 94 °F | 90.4 °F | 14 watt/m2 | 0 mph | --- | 74 % | 29.825 in Hg | 0 in |
| 09/01/2026 07:15 PM | 96 °F | 95 °F | 93 °F | 95 °F | 91.3 °F | 23 watt/m2 | 0 mph | --- | 72 % | 29.828 in Hg | 0 in |
| 09/01/2026 07:00 PM | 98 °F | 96 °F | 94 °F | 96 °F | 92.2 °F | 29 watt/m2 | 0 mph | --- | 71 % | 29.831 in Hg | 0 in |
| 09/01/2026 06:45 PM | 99 °F | 97 °F | 94 °F | 97 °F | 93 °F | 33 watt/m2 | 0 mph | --- | 69 % | 29.833 in Hg | 0 in |
| 09/01/2026 06:30 PM | 100 °F | 98 °F | 95 °F | 98 °F | 93.5 °F | 32 watt/m2 | 0 mph | --- | 68 % | 29.832 in Hg | 0 in |
| 09/01/2026 06:15 PM | 101 °F | 99 °F | 96 °F | 99 °F | 94 °F | 36 watt/m2 | 0 mph | --- | 66 % | 29.835 in Hg | 0 in |
| 09/01/2026 06:00 PM | 103 °F | 100 °F | 97 °F | 99 °F | 94.2 °F | 40 watt/m2 | 2 mph | E | 65 % | 29.838 in Hg | 0 in |
| 09/01/2026 05:45 PM | 104 °F | 101 °F | 97 °F | 100 °F | 94.4 °F | 38 watt/m2 | 1 mph | SE | 64 % | 29.835 in Hg | 0 in |
| 09/01/2026 05:30 PM | 106 °F | 103 °F | 98 °F | 101 °F | 94.7 °F | 42 watt/m2 | 3 mph | ESE | 65 % | 29.837 in Hg | 0 in |
| 09/01/2026 05:15 PM | 108 °F | 104 °F | 98 °F | 103 °F | 94.9 °F | 46 watt/m2 | 4 mph | NE | 63 % | 29.844 in Hg | 0 in |
| 09/01/2026 05:00 PM | 110 °F | 106 °F | 100 °F | 104 °F | 95.1 °F | 45 watt/m2 | 2 mph | S | 63 % | 29.844 in Hg | 0 in |
| 09/01/2026 04:45 PM | 112 °F | 108 °F | 101 °F | 105 °F | 95.1 °F | 97 watt/m2 | 1 mph | ENE | 63 % | 29.846 in Hg | 0 in |
| 09/01/2026 04:30 PM | 114 °F | 109 °F | 102 °F | 106 °F | 94.9 °F | 116 watt/m2 | 2 mph | E | 64 % | 29.851 in Hg | 0 in |
| 09/01/2026 04:15 PM | 117 °F | 111 °F | 103 °F | 107 °F | 94.9 °F | 95 watt/m2 | 6 mph | N | 63 % | 29.855 in Hg | 0 in |
| 09/01/2026 04:00 PM | 120 °F | 113 °F | 104 °F | 109 °F | 95.1 °F | 90 watt/m2 | 6 mph | NE | 64 % | 29.855 in Hg | 0 in |
| 09/01/2026 03:45 PM | 119 °F | 115 °F | 105 °F | 111 °F | 95.1 °F | 154 watt/m2 | 5 mph | ENE | 63 % | 29.866 in Hg | 0 in |
| 09/01/2026 03:30 PM | 121 °F | 118 °F | 107 °F | 113 °F | 95.3 °F | 150 watt/m2 | 5 mph | NE | 63 % | 29.869 in Hg | 0 in |
| 09/01/2026 03:15 PM | 119 °F | 117 °F | 108 °F | 114 °F | 94.7 °F | 160 watt/m2 | 9 mph | NNE | 65 % | 29.873 in Hg | 0 in |
| 09/01/2026 03:00 PM | 118 °F | 116 °F | 109 °F | 114 °F | 94.4 °F | 180 watt/m2 | 6 mph | NE | 67 % | 29.879 in Hg | 0 in |
| 09/01/2026 02:45 PM | 117 °F | 116 °F | 112 °F | 114 °F | 94.2 °F | 142 watt/m2 | 6 mph | NNE | 67 % | 29.882 in Hg | 0 in |
| 09/01/2026 02:30 PM | 115 °F | 115 °F | 112 °F | 115 °F | 94 °F | 75 watt/m2 | 8 mph | NE | 66 % | 29.878 in Hg | 0 in |
| 09/01/2026 02:15 PM | 114 °F | 114 °F | 110 °F | 113 °F | 93.7 °F | 773 watt/m2 | 9 mph | NE | 68 % | 29.882 in Hg | 0 in |
| 09/01/2026 02:00 PM | 113 °F | 113 °F | 109 °F | 112 °F | 93.7 °F | 781 watt/m2 | 8 mph | N | 69 % | 29.88 in Hg | 0 in |
| 09/01/2026 01:45 PM | 111 °F | 111 °F | 107 °F | 110 °F | 92.7 °F | 821 watt/m2 | 3 mph | NE | 70 % | 29.888 in Hg | 0 in |
| 09/01/2026 01:30 PM | 109 °F | 109 °F | 105 °F | 108 °F | 91.8 °F | 406 watt/m2 | 6 mph | E | 71 % | 29.887 in Hg | 0 in |
| 09/01/2026 01:15 PM | 108 °F | 108 °F | 104 °F | 107 °F | 91.5 °F | 329 watt/m2 | 1 mph | NE | 72 % | 29.888 in Hg | 0 in |
| 09/01/2026 01:00 PM | 108 °F | 108 °F | 104 °F | 107 °F | 91.3 °F | 276 watt/m2 | 3 mph | NNE | 71 % | 29.891 in Hg | 0 in |
| 09/01/2026 12:45 PM | 109 °F | 109 °F | 105 °F | 108 °F | 91.7 °F | 229 watt/m2 | 6 mph | E | 71 % | 29.902 in Hg | 0 in |
| 09/01/2026 12:30 PM | 110 °F | 110 °F | 107 °F | 110 °F | 92 °F | 226 watt/m2 | 6 mph | NNE | 69 % | 29.903 in Hg | 0 in |
| 09/01/2026 12:15 PM | 111 °F | 111 °F | 107 °F | 110 °F | 92.7 °F | 321 watt/m2 | 3 mph | ESE | 68 % | 29.907 in Hg | 0 in |
| 09/01/2026 12:00 PM | 110 °F | 112 °F | 107 °F | 111 °F | 93.1 °F | 664 watt/m2 | 5 mph | NE | 67 % | 29.91 in Hg | 0 in |
| 09/01/2026 11:45 AM | 109 °F | 110 °F | 106 °F | 109 °F | 92.6 °F | 755 watt/m2 | 5 mph | NE | 69 % | 29.912 in Hg | 0 in |
| 09/01/2026 11:30 AM | 107 °F | 108 °F | 104 °F | 107 °F | 92.3 °F | 566 watt/m2 | 5 mph | E | 72 % | 29.921 in Hg | 0 in |
| 09/01/2026 11:15 AM | 106 °F | 107 °F | 103 °F | 106 °F | 91.8 °F | 612 watt/m2 | 6 mph | NE | 70 % | 29.922 in Hg | 0 in |
| 09/01/2026 11:00 AM | 104 °F | 105 °F | 101 °F | 104 °F | 91.1 °F | 669 watt/m2 | 7 mph | NNE | 71 % | 29.922 in Hg | 0 in |
| 09/01/2026 10:45 AM | 101 °F | 101 °F | 99 °F | 102 °F | 90 °F | 639 watt/m2 | 3 mph | ENE | 73 % | 29.925 in Hg | 0 in |
| 09/01/2026 10:30 AM | 97 °F | 98 °F | 97 °F | 99 °F | 88.6 °F | 614 watt/m2 | 2 mph | NNE | 76 % | 29.926 in Hg | 0 in |
| 09/01/2026 10:15 AM | 94 °F | 94 °F | 93 °F | 95 °F | 86.6 °F | 424 watt/m2 | 3 mph | N | 80 % | 29.927 in Hg | 0 in |
| 09/01/2026 10:00 AM | 93 °F | 94 °F | 93 °F | 94 °F | 85.8 °F | 204 watt/m2 | 3 mph | E | 81 % | 29.928 in Hg | 0 in |
| 09/01/2026 09:45 AM | 92 °F | 93 °F | 92 °F | 94 °F | 85.2 °F | 330 watt/m2 | 4 mph | ENE | 85 % | 29.921 in Hg | 0 in |
| 09/01/2026 09:30 AM | 89 °F | 89 °F | 89 °F | 90 °F | 83.2 °F | 186 watt/m2 | 0 mph | --- | 89 % | 29.924 in Hg | 0 in |
| 09/01/2026 09:15 AM | 87 °F | 88 °F | 89 °F | 89 °F | 82.2 °F | 359 watt/m2 | 0 mph | --- | 93 % | 29.93 in Hg | 0 in |
| 09/01/2026 09:00 AM | 84 °F | 85 °F | 86 °F | 87 °F | 80.1 °F | 330 watt/m2 | 0 mph | --- | 97 % | 29.933 in Hg | 0 in |
| 09/01/2026 08:45 AM | 80 °F | 81 °F | 82 °F | 83 °F | 78.5 °F | 285 watt/m2 | 6 mph | NNE | 99 % | 29.942 in Hg | 0 in |
| 09/01/2026 08:30 AM | 78 °F | 77 °F | 79 °F | 80 °F | 77.8 °F | 155 watt/m2 | 0 mph | --- | 99 % | 29.946 in Hg | 0 in |
| 09/01/2026 08:15 AM | 76 °F | 76 °F | 78 °F | 78 °F | 76.6 °F | 230 watt/m2 | 0 mph | --- | 100 % | 29.94 in Hg | 0 in |
| 09/01/2026 08:00 AM | 75 °F | 75 °F | 76 °F | 77 °F | 75.4 °F | 99 watt/m2 | 0 mph | --- | 99 % | 29.933 in Hg | 0 in |
| 09/01/2026 07:45 AM | 74 °F | 74 °F | 76 °F | 76 °F | 74.5 °F | 85 watt/m2 | 0 mph | --- | 99 % | 29.928 in Hg | 0 in |
| 09/01/2026 07:30 AM | 74 °F | 73 °F | 75 °F | 75 °F | 73.9 °F | 44 watt/m2 | 0 mph | --- | 99 % | 29.931 in Hg | 0 in |
| 09/01/2026 07:15 AM | 73 °F | 73 °F | 75 °F | 75 °F | 73.8 °F | 29 watt/m2 | 4 mph | NNE | 98 % | 29.946 in Hg | 0 in |
| 09/01/2026 07:00 AM | 73 °F | 73 °F | 74 °F | 75 °F | 73.7 °F | 14 watt/m2 | 0 mph | --- | 98 % | 29.935 in Hg | 0 in |
| 09/01/2026 06:45 AM | 73 °F | 73 °F | 74 °F | 74 °F | 73.6 °F | 0 watt/m2 | 0 mph | --- | 98 % | 29.929 in Hg | 0 in |
| 09/01/2026 06:30 AM | 73 °F | 73 °F | 74 °F | 74 °F | 73.7 °F | 0 watt/m2 | 0 mph | --- | 98 % | 29.929 in Hg | 0 in |
| 09/01/2026 06:15 AM | 73 °F | 73 °F | 74 °F | 74 °F | 73.8 °F | 0 watt/m2 | 0 mph | --- | 98 % | 29.928 in Hg | 0 in |
| 09/01/2026 06:00 AM | 73 °F | 73 °F | 74 °F | 74 °F | 73.8 °F | 0 watt/m2 | 0 mph | --- | 98 % | 29.925 in Hg | 0 in |
| 09/01/2026 05:45 AM | 73 °F | 73 °F | 74 °F | 74 °F | 73.8 °F | 0 watt/m2 | 0 mph | --- | 98 % | 29.939 in Hg | 0 in |
| 09/01/2026 05:30 AM | 73 °F | 73 °F | 73 °F | 74 °F | 73.5 °F | 0 watt/m2 | 0 mph | --- | 98 % | 29.921 in Hg | 0 in |
| 09/01/2026 05:15 AM | 73 °F | 73 °F | 73 °F | 74 °F | 73.4 °F | 0 watt/m2 | 0 mph | --- | 97 % | 29.946 in Hg | 0 in |
| 09/01/2026 05:00 AM | 73 °F | 73 °F | 73 °F | 73 °F | 73.3 °F | 0 watt/m2 | 0 mph | --- | 97 % | 29.932 in Hg | 0 in |
| 09/01/2026 04:45 AM | 73 °F | 73 °F | 73 °F | 73 °F | 73.3 °F | 0 watt/m2 | 0 mph | --- | 97 % | 29.967 in Hg | 0 in |
| 09/01/2026 04:30 AM | 73 °F | 73 °F | 73 °F | 73 °F | 73.4 °F | 0 watt/m2 | 0 mph | --- | 97 % | 29.962 in Hg | 0 in |
| 09/01/2026 04:15 AM | 74 °F | 73 °F | 73 °F | 73 °F | 73.5 °F | 0 watt/m2 | 0 mph | --- | 97 % | 29.928 in Hg | 0 in |
| 09/01/2026 04:00 AM | 74 °F | 73 °F | 73 °F | 74 °F | 73.8 °F | 0 watt/m2 | 0 mph | --- | 97 % | 29.929 in Hg | 0 in |
| 09/01/2026 03:45 AM | 74 °F | 74 °F | 74 °F | 74 °F | 74 °F | 0 watt/m2 | 0 mph | --- | 97 % | 29.962 in Hg | 0 in |
| 09/01/2026 03:30 AM | 74 °F | 74 °F | 74 °F | 74 °F | 74.1 °F | 0 watt/m2 | 0 mph | --- | 97 % | 29.968 in Hg | 0 in |
| 09/01/2026 03:15 AM | 75 °F | 74 °F | 74 °F | 74 °F | 74.4 °F | 0 watt/m2 | 0 mph | --- | 97 % | 29.938 in Hg | 0 in |
| 09/01/2026 03:00 AM | 75 °F | 74 °F | 74 °F | 75 °F | 74.5 °F | 0 watt/m2 | 0 mph | --- | 97 % | 29.942 in Hg | 0 in |
| 09/01/2026 02:45 AM | 75 °F | 75 °F | 74 °F | 75 °F | 74.7 °F | 0 watt/m2 | 0 mph | --- | 97 % | 29.98 in Hg | 0 in |
| 09/01/2026 02:30 AM | 75 °F | 75 °F | 75 °F | 75 °F | 74.9 °F | 0 watt/m2 | 0 mph | --- | 97 % | 29.983 in Hg | 0 in |
| 09/01/2026 02:15 AM | 76 °F | 75 °F | 75 °F | 75 °F | 75 °F | 0 watt/m2 | 0 mph | --- | 97 % | 29.951 in Hg | 0 in |
| 09/01/2026 02:00 AM | 76 °F | 75 °F | 75 °F | 76 °F | 75.1 °F | 0 watt/m2 | 0 mph | --- | 97 % | 29.984 in Hg | 0 in |
| 09/01/2026 01:45 AM | 76 °F | 75 °F | 75 °F | 76 °F | 75.2 °F | 0 watt/m2 | 0 mph | --- | 97 % | 29.985 in Hg | 0 in |
| 09/01/2026 01:30 AM | 76 °F | 76 °F | 75 °F | 76 °F | 75.3 °F | 0 watt/m2 | 0 mph | --- | 96 % | 29.992 in Hg | 0 in |